[[{"header":{"parameterUnit":"m.s-1","parameterCategory":1,"la1":30.2991,"la2":30.254,"lo1":-89.0895,"lo2":-89.0444,"dy":0.0017,"dx":0.0017,"nx":28,"ny":28,"refTime":"2024-07-15T21:00:00:Z","depth":0,"parameterNumber":2,"parameterNumberName":"U-component_of_WINDS"},"data":[0,0,0,0,0,0,0,0,0,0,0,0,0,0,0,0,0,0,0,0,0,0,0,0,0,0,0,0,0,0,0,0,0,0,0,0,0,0,0,0,0,0,0,0,0,0,0,0,0,0,0,0,0,0,0,0,0,0,4.2858,4.2859,0,4.2966,4.2967,4.2968,4.2912,4.2909,4.2906,4.2903,4.3012,4.3017,4.3023,0,0,0,0,0,0,0,0,0,0,0,0,0,4.2598,4.2603,4.2858,4.2859,4.2861,4.2966,4.2967,4.2969,4.2912,4.2909,4.2905,4.2902,4.301,4.3017,4.3023,0,0,0,0,0,0,0,0,0,0,0,0,0,4.2709,4.2605,4.2858,4.2845,4.2845,4.2966,4.2967,4.2969,4.2913,4.2909,4.2904,4.29,4.3008,4.3016,4.3024,4.3163,0,0,4.305,4.3054,0,0,0,0,0,0,0,0,4.2703,4.2719,4.2846,4.2846,4.2847,4.2921,4.2915,4.3034,4.2914,4.2887,4.2903,4.2898,4.2985,4.2995,4.3025,4.3168,4.3172,4.3051,4.3056,4.3059,4.3062,0,0,0,0,0,0,0,4.2695,4.2714,4.2901,4.2848,4.2848,4.2833,4.2844,4.2938,4.2959,4.2889,4.2885,4.2899,4.2984,4.3017,4.3027,4.3174,4.305,4.3058,4.3063,4.3066,4.343,4.3434,0,0,0,0,0,0,4.2689,4.2708,4.2897,4.2904,4.2763,4.2841,4.2853,4.2901,4.2958,4.2962,4.2903,4.2896,4.3005,4.3017,4.303,4.3192,4.3059,4.3067,4.3072,4.3425,4.3431,4.3436,0,0,0,0,0,0,4.2683,4.2706,4.2893,4.2805,4.2827,4.285,4.2905,4.2906,4.2938,4.2968,4.2971,4.2932,4.3002,4.3019,4.3129,4.3195,4.3071,4.3079,4.342,4.3427,4.3433,4.3518,0,0,0,0,0,0,4.2676,4.2705,4.2759,4.2807,4.2832,4.2991,4.2909,4.2911,4.2953,4.2945,4.2996,4.3001,4.3,4.3117,4.3137,4.3204,4.3085,4.3414,4.3423,4.3431,4.3509,4.3527,4.3542,0,0,0,0,0,4.2667,4.2779,4.2762,4.2785,4.2901,4.2995,4.301,4.3007,4.2959,4.3012,4.303,4.2999,4.3185,4.3129,4.3151,4.3221,4.341,4.342,4.343,4.3502,4.3524,4.3542,0,0,0,0,0,0,4.2739,4.2785,4.2767,4.2898,4.2943,4.2986,4.3053,4.3031,4.309,4.308,4.3074,4.3085,4.3199,4.3222,4.3158,4.3355,4.3289,4.3305,4.3336,4.3357,4.3373,4.3363,4.3092,0,0,0,0,0,4.277,4.2845,4.2881,4.2993,4.3016,4.3031,4.3072,4.3066,4.3112,4.3131,4.3157,4.3203,4.327,4.3315,4.338,4.3513,4.3521,4.3572,4.3589,4.3602,4.3614,4.3681,4.3703,4.347,4.347,4.347,0,0,4.2836,4.287,4.2917,4.3008,4.3042,4.3116,4.3047,4.3131,4.3185,4.3143,4.3247,4.3269,4.3318,4.3439,4.3494,4.3462,4.368,4.3615,4.3626,4.3631,4.3694,4.3716,4.3735,4.3477,4.3476,4.3475,0,0,4.2991,4.3027,4.3121,4.3157,4.3209,4.3217,4.324,4.3286,4.3297,4.3403,4.3371,4.3435,4.3554,4.3589,4.3622,4.3788,4.3759,4.3809,4.3893,4.3958,4.3976,4.3993,4.4047,4.4067,4.3822,4.3822,4.3822,0,4.3065,4.3177,4.3173,4.3257,4.3296,4.3261,4.3355,4.3389,4.346,4.3487,4.345,4.3595,4.3626,4.3752,4.3792,4.3822,4.3844,4.3802,4.3975,4.3991,4.4006,4.4057,4.4078,4.3828,4.3827,4.3826,4.3826,0,4.3263,4.3341,4.3411,4.3479,4.3526,4.3615,4.3622,4.367,4.3659,4.367,4.3775,4.3811,4.388,4.391,4.3901,4.4034,4.4011,4.3975,4.3908,4.4033,4.4081,4.4101,4.3835,4.3833,4.3832,4.383,0,0,4.3468,4.353,4.3555,4.3583,4.3637,4.3696,4.3782,4.3849,4.3888,4.3938,4.4006,4.4106,4.4071,4.4109,4.4103,4.4161,4.4283,4.4117,4.4118,4.4142,4.4426,4.445,4.4473,4.4266,4.427,4.4273,4.442,0,4.3623,4.3773,4.377,4.3908,4.3977,4.3944,4.4018,4.4057,4.407,4.4129,4.4143,4.4211,4.4163,4.4185,4.4241,4.4257,4.4339,4.4246,4.4326,4.4329,4.4311,4.4499,4.4525,4.4663,4.4439,4.4442,4.4445,0,4.3825,4.3879,4.4024,4.4063,4.4092,4.4159,4.4217,4.4276,4.4319,4.4323,4.4364,4.4348,4.4431,4.4364,4.4477,4.4414,4.4446,4.4459,4.4464,4.4468,4.4392,4.4504,4.4707,4.4726,4.4475,4.4473,4.4471,0,4.3953,4.4063,4.4163,4.4189,4.4238,4.4285,4.4307,4.4346,4.4385,4.4436,4.446,4.4521,4.4554,4.46,4.4599,4.4551,4.4712,4.4646,4.4715,4.4715,4.4748,4.4745,4.4954,4.4776,4.4775,4.4775,4.4775,0,4.4125,4.4214,4.422,4.4281,4.4378,4.4373,4.4469,4.4486,4.452,4.4582,4.4558,4.4616,4.4614,4.4672,4.4672,4.4762,4.4779,4.4782,4.478,4.4782,4.4781,4.4801,4.479,4.4781,4.4779,4.4778,4.4777,0,4.4284,4.4293,4.4398,4.4435,4.4446,4.4516,4.4547,4.4603,4.4613,4.469,4.4708,4.4723,4.479,4.4795,4.4873,4.4872,4.4981,4.4971,4.4966,4.4962,4.5029,4.5021,4.5256,4.5284,4.5091,4.5093,4.5095,0,4.4392,4.4459,4.4502,4.4542,4.4566,4.4631,4.467,4.4667,4.4708,4.4759,4.4808,4.4873,4.4924,4.5032,4.5048,4.5106,4.5094,4.5173,4.5103,4.5101,4.509,4.5084,4.5088,4.5185,4.5187,4.5189,4.519,0,4.458,4.4579,4.4637,4.4695,4.4741,4.4787,4.483,4.4863,4.4864,4.4911,4.4979,4.5018,4.5096,4.5159,4.5215,4.5236,4.5212,4.5212,4.523,4.5231,4.5223,4.5223,4.4998,4.5206,4.5205,4.5204,4.5203,4.5202,4.4713,4.4769,4.4807,4.487,4.4901,4.4941,4.4994,4.5009,4.5066,4.5128,4.5123,4.5197,4.5233,4.5306,4.5332,4.5387,4.536,4.5388,4.5394,4.54,4.5405,4.5218,4.5398,4.5398,4.5397,4.5397,4.5397,0,4.4895,4.4917,4.4976,4.5035,4.5083,4.5058,4.5102,4.5144,4.5209,4.5246,4.5296,4.5371,4.5431,4.5452,4.5509,4.5549,4.5539,4.5564,4.5559,4.5563,4.5428,4.5404,4.5571,4.5571,4.5571,4.5571,4.5571,4.5571,4.4995,4.5087,4.5091,4.5196,4.5218,4.5289,4.5316,4.5351,4.5379,4.5464,4.5514,4.5527,4.5556,4.5614,4.5667,4.5671,4.5691,4.5719,4.5719,4.5591,4.5573,4.5557,4.5534,4.5725,4.5725,4.5848,4.5849,4.585]},{"header":{"parameterUnit":"m.s-1","parameterCategory":1,"la1":30.2991,"la2":30.254,"lo1":-89.0895,"lo2":-89.0444,"dy":0.0017,"dx":0.0017,"nx":28,"ny":28,"refTime":"2024-07-15T21:00:00:Z","depth":0,"parameterNumber":3,"parameterNumberName":"V-component_of_WINDS"},"data":[0,0,0,0,0,0,0,0,0,0,0,0,0,0,0,0,0,0,0,0,0,0,0,0,0,0,0,0,0,0,0,0,0,0,0,0,0,0,0,0,0,0,0,0,0,0,0,0,0,0,0,0,0,0,0,0,0,0,2.2647,2.2648,0,2.2749,2.2751,2.2752,2.2731,2.2729,2.2727,2.2725,2.283,2.2835,2.2839,0,0,0,0,0,0,0,0,0,0,0,0,0,2.2432,2.2436,2.2647,2.2648,2.265,2.2749,2.2751,2.2752,2.2731,2.2729,2.2727,2.2725,2.2829,2.2834,2.284,0,0,0,0,0,0,0,0,0,0,0,0,0,2.2529,2.2437,2.2647,2.2651,2.2653,2.2749,2.2751,2.2752,2.2732,2.2729,2.2726,2.2724,2.2827,2.2834,2.2841,2.2939,0,0,2.2861,2.2864,0,0,0,0,0,0,0,0,2.2524,2.2537,2.2649,2.2651,2.2653,2.2725,2.2713,2.2815,2.2733,2.2702,2.2725,2.2722,2.2798,2.2807,2.2832,2.2944,2.2948,2.2862,2.2866,2.2869,2.2871,0,0,0,0,0,0,0,2.2517,2.2532,2.2687,2.2651,2.2653,2.2648,2.2658,2.2732,2.2764,2.2704,2.2703,2.2715,2.2798,2.2825,2.2834,2.295,2.2862,2.2868,2.2872,2.2875,2.3145,2.3148,0,0,0,0,0,0,2.2509,2.2527,2.2684,2.2691,2.258,2.2654,2.2666,2.2704,2.2763,2.277,2.2718,2.2714,2.2815,2.2826,2.2838,2.2955,2.2869,2.2875,2.2879,2.3142,2.3145,2.3149,0,0,0,0,0,0,2.2504,2.2523,2.268,2.2608,2.2628,2.266,2.2704,2.2708,2.2735,2.2773,2.2779,2.274,2.2813,2.2828,2.2913,2.2959,2.2878,2.2885,2.3138,2.3143,2.3147,2.3192,0,0,0,0,0,0,2.2498,2.2521,2.256,2.2609,2.2632,2.2755,2.2707,2.2712,2.2747,2.2743,2.2796,2.2802,2.2812,2.2903,2.292,2.2967,2.289,2.3134,2.314,2.3145,2.3187,2.3198,2.3207,0,0,0,0,0,2.249,2.2569,2.2562,2.2581,2.2681,2.2757,2.277,2.2781,2.2751,2.2789,2.2813,2.28,2.2951,2.2912,2.2931,2.298,2.3131,2.3138,2.3145,2.3182,2.3195,2.3207,0,0,0,0,0,0,2.2524,2.2576,2.2568,2.2665,2.2707,2.2754,2.2802,2.2795,2.2846,2.284,2.2851,2.2863,2.2949,2.2973,2.2929,2.3077,2.3037,2.3048,2.3058,2.3071,2.3081,2.3074,2.2896,0,0,0,0,0,2.2543,2.2601,2.2643,2.2724,2.2745,2.277,2.2804,2.2808,2.2852,2.287,2.29,2.2943,2.2999,2.3037,2.3091,2.319,2.32,2.3233,2.3243,2.3251,2.326,2.3312,2.3327,2.3171,2.3171,2.3171,0,0,2.2582,2.2617,2.2654,2.2732,2.2765,2.2824,2.2785,2.285,2.2894,2.288,2.2961,2.2985,2.3033,2.3125,2.3166,2.3147,2.3305,2.326,2.3266,2.3271,2.3321,2.3335,2.3348,2.3176,2.3175,2.3175,0,0,2.2684,2.2717,2.2788,2.2821,2.2871,2.2886,2.2903,2.2951,2.2965,2.3047,2.3037,2.3089,2.3187,2.3221,2.3251,2.3363,2.3353,2.3381,2.3434,2.3484,2.3497,2.3508,2.3546,2.356,2.339,2.339,2.339,0,2.2727,2.2816,2.2825,2.2891,2.2924,2.2913,2.2983,2.3015,2.308,2.3104,2.3081,2.3202,2.3234,2.3333,2.336,2.3385,2.3404,2.3375,2.3494,2.3505,2.3515,2.3552,2.3567,2.3393,2.3393,2.3392,2.3392,0,2.2866,2.2927,2.2978,2.3041,2.308,2.3148,2.3166,2.3205,2.3205,2.3223,2.3305,2.3342,2.3403,2.3427,2.3428,2.3525,2.3511,2.3492,2.3451,2.3533,2.3568,2.3582,2.3397,2.3396,2.3395,2.3395,0,0,2.2993,2.3058,2.3076,2.3103,2.3156,2.3204,2.327,2.3329,2.3362,2.3407,2.3462,2.3544,2.3525,2.3559,2.3564,2.3608,2.3692,2.3582,2.3584,2.3601,2.3799,2.3814,2.383,2.3685,2.3688,2.369,2.3795,0,2.3099,2.3217,2.3225,2.3331,2.3387,2.3376,2.3433,2.3471,2.3489,2.3539,2.3558,2.3615,2.3587,2.3607,2.365,2.3673,2.3732,2.3665,2.3736,2.3738,2.3724,2.3849,2.3865,2.3962,2.3809,2.3811,2.3813,0,2.3239,2.3287,2.3398,2.3441,2.3465,2.3516,2.357,2.3618,2.366,2.367,2.3707,2.3705,2.3771,2.3728,2.382,2.3774,2.3803,2.3818,2.3822,2.3829,2.3781,2.3858,2.3993,2.4008,2.3835,2.3833,2.3831,0,2.332,2.3412,2.349,2.3513,2.3566,2.3602,2.3625,2.3665,2.3699,2.3745,2.3767,2.3821,2.3851,2.3892,2.3904,2.3872,2.3995,2.3953,2.4004,2.4003,2.4031,2.4029,2.4171,2.405,2.405,2.405,2.4049,0,2.3437,2.3505,2.3526,2.3574,2.3649,2.3658,2.3732,2.3753,2.3788,2.3839,2.3832,2.388,2.3893,2.3943,2.3952,2.4026,2.404,2.4048,2.405,2.4049,2.4048,2.4068,2.4061,2.4053,2.4053,2.4052,2.4051,0,2.354,2.3557,2.3641,2.3683,2.3695,2.3748,2.3784,2.3829,2.3845,2.3909,2.3925,2.395,2.4008,2.4023,2.4094,2.41,2.4186,2.4182,2.4172,2.4172,2.4221,2.4216,2.4382,2.4403,2.4268,2.427,2.4271,0,2.3614,2.3666,2.3712,2.3746,2.3771,2.3825,2.3859,2.3869,2.3905,2.3955,2.3994,2.4051,2.4098,2.4191,2.4215,2.4268,2.4264,2.4319,2.4272,2.4269,2.4264,2.426,2.4265,2.4327,2.4329,2.433,2.4331,0,2.3742,2.3747,2.3797,2.3849,2.389,2.3932,2.3972,2.4,2.4015,2.4055,2.4114,2.415,2.422,2.4277,2.433,2.4353,2.4344,2.4345,2.436,2.4359,2.435,2.4354,2.4195,2.4342,2.434,2.434,2.4339,2.4339,2.3832,2.3877,2.3916,2.3971,2.4002,2.4039,2.4083,2.4104,2.4153,2.4211,2.4213,2.4277,2.4316,2.4386,2.4412,2.4461,2.4445,2.4466,2.4471,2.4476,2.448,2.4343,2.4471,2.4471,2.4471,2.447,2.447,0,2.3959,2.3984,2.4034,2.4089,2.4132,2.412,2.4163,2.4199,2.4255,2.4292,2.4337,2.4404,2.4458,2.4485,2.4539,2.4573,2.457,2.4586,2.4584,2.4589,2.4492,2.4474,2.4588,2.4588,2.4588,2.4587,2.4587,2.4587,2.4031,2.4105,2.4115,2.4203,2.4227,2.4289,2.4314,2.4348,2.4377,2.4452,2.4496,2.4514,2.4546,2.4602,2.465,2.4657,2.4676,2.4695,2.4699,2.4608,2.4596,2.4585,2.4567,2.4699,2.4699,2.4792,2.4792,2.4793]}]]